GW2975 Weather Reports


time (UTC)temp
F
wind
direction
speed
knots
gust
knots
rain 1hr
in
rain 24hr
in
rain mn
in
humidity
%
barometer
mb
20260510022538 76 0 0.0 0.0 0.00 0.03 0.03 70 1010.8
20260510022036 76 0 0.0 0.9 0.00 0.03 0.03 69 1010.7
20260510021547 76 0 0.0 1.7 0.00 0.03 0.03 69 1010.8
20260510021033 77 0 0.0 1.7 0.00 0.03 0.03 68 1010.7
20260510020536 77 0 0.0 1.7 0.00 0.03 0.03 67 1010.7
20260510020046 77 303 0.0 1.7 0.00 0.03 0.03 67 1010.6
20260510015539 77 296 0.0 1.7 0.00 0.03 0.03 66 1010.5
20260510015035 78 0 0.0 2.6 0.00 0.03 0.03 65 1010.6
20260510014545 78 0 0.0 3.5 0.00 0.03 0.03 64 1010.4
20260510014036 78 296 0.0 3.5 0.00 0.03 0.03 63 1010.2
20260510013534 78 0 0.9 3.5 0.00 0.03 0.03 63 1010.2
20260510013101 79 308 1.7 3.5 0.00 0.03 0.03 61 1010.1
20260510012540 79 316 1.7 3.5 0.00 0.03 0.03 60 1010.2
20260510012039 79 307 0.9 3.5 0.00 0.03 0.03 59 1010.1
20260510011546 80 298 1.7 5.2 0.00 0.03 0.03 57 1010.1
20260510011039 80 295 1.7 5.2 0.00 0.03 0.03 56 1010.1
20260510010536 80 303 1.7 4.3 0.00 0.03 0.03 54 1009.9
20260510010046 81 302 1.7 4.3 0.00 0.03 0.03 52 1009.8
20260510005537 81 279 1.7 5.2 0.00 0.03 0.03 51 1009.8
20260510005037 81 290 1.7 7.0 0.00 0.03 0.03 50 1009.7
20260510004555 82 293 2.6 7.0 0.00 0.03 0.03 49 1009.7
20260510004036 82 300 2.6 7.0 0.00 0.03 0.03 49 1009.6
20260510003536 82 267 2.6 7.0 0.00 0.03 0.03 48 1009.7
20260510003049 83 294 1.7 7.8 0.00 0.03 0.03 48 1009.7
20260510002540 83 310 2.6 7.8 0.00 0.03 0.03 48 1009.6
20260510002036 83 334 3.5 7.8 0.00 0.03 0.03 48 1009.5
20260510001553 84 311 2.6 7.0 0.00 0.03 0.03 54 1009.5
20260510001037 84 298 2.6 7.0 0.00 0.03 0.03 53 1009.4
20260510000537 84 302 2.6 8.7 0.00 0.03 0.03 53 1009.4
20260510000052 84 293 3.5 8.7 0.00 0.03 0.03 53 1009.3
20260509235538 85 319 2.6 7.8 0.00 0.03 0.03 54 1009.3
20260509235037 85 306 2.6 7.8 0.00 0.03 0.03 54 1009.3
20260509234548 85 286 4.3 7.0 0.00 0.03 0.03 53 1009.2
20260509234036 85 304 2.6 8.7 0.00 0.03 0.03 52 1009.1
20260509233537 85 284 2.6 8.7 0.00 0.03 0.03 52 1009.2
20260509233048 86 269 2.6 7.8 0.00 0.03 0.03 52 1009.1
20260509232537 86 306 2.6 7.8 0.00 0.03 0.03 52 1009.1
20260509232037 86 321 3.5 7.0 0.00 0.03 0.03 52 1009.1
20260509231557 86 345 1.7 7.0 0.00 0.03 0.03 54 1009.1
20260509231036 86 302 1.7 7.0 0.00 0.03 0.03 54 1009.1
20260509230537 86 283 2.6 7.0 0.00 0.03 0.03 54 1009.2
20260509230048 86 311 1.7 7.0 0.00 0.03 0.03 55 1009.1
20260509225538 86 300 4.3 7.8 0.00 0.03 0.03 55 1009.0
20260509225037 86 291 1.7 7.8 0.00 0.03 0.03 58 1009.0
20260509224547 86 306 2.6 7.8 0.00 0.03 0.03 54 1009.2
20260509224037 86 310 3.5 7.8 0.00 0.03 0.03 55 1009.2
20260509223537 86 268 1.7 7.0 0.00 0.03 0.03 57 1009.1
20260509223049 85 333 1.7 7.8 0.00 0.03 0.03 59 1009.1
20260509222538 85 296 2.6 7.8 0.00 0.03 0.03 57 1009.1
20260509222037 85 281 3.5 10.4 0.00 0.03 0.03 56 1009.2
20260509221549 85 288 4.3 10.4 0.00 0.03 0.03 56 1009.2
20260509221037 85 279 3.5 10.4 0.00 0.03 0.03 56 1009.0
20260509220537 84 287 1.7 6.1 0.00 0.03 0.03 57 1009.0
20260509220054 84 253 2.6 6.1 0.00 0.03 0.03 58 1009.1
20260509215537 85 261 2.6 8.7 0.00 0.03 0.03 56 1009.1
20260509215037 84 234 2.6 8.7 0.00 0.03 0.03 56 1009.2
20260509214546 84 271 2.6 8.7 0.00 0.03 0.03 55 1009.2
20260509214036 86 313 3.5 8.7 0.00 0.03 0.03 53 1009.3
20260509213536 88 299 4.3 8.7 0.00 0.03 0.03 52 1009.4
20260509213047 90 232 0.0 4.3 0.00 0.03 0.03 47 1009.4
20260509212537 90 0 0.0 7.0 0.00 0.03 0.03 46 1009.4
20260509212037 91 80 2.6 7.0 0.00 0.03 0.03 45 1009.4
20260509211548 91 79 1.7 7.8 0.00 0.03 0.03 46 1009.4
20260509211037 90 73 0.0 9.6 0.00 0.03 0.03 46 1009.4
20260509210537 90 78 3.5 9.6 0.00 0.03 0.03 46 1009.5
20260509210054 90 87 0.0 8.7 0.00 0.03 0.03 48 1009.6
20260509205536 90 88 1.7 8.7 0.00 0.03 0.03 47 1009.6
20260509205040 90 130 2.6 8.7 0.00 0.03 0.03 48 1009.7
20260509204554 90 82 0.9 7.8 0.00 0.03 0.03 51 1009.7
20260509204037 90 84 3.5 7.8 0.00 0.03 0.03 49 1009.8
20260509203536 90 0 1.7 8.7 0.00 0.03 0.03 50 1009.7
20260509203045 90 23 1.7 8.7 0.00 0.03 0.03 51 1009.9
20260509202537 89 61 0.9 8.7 0.00 0.03 0.03 54 1009.9
20260509202039 89 96 4.3 8.7 0.00 0.03 0.03 51 1010.1
20260509201546 89 304 1.7 7.8 0.00 0.03 0.03 54 1010.0
20260509201036 88 0 4.3 7.8 0.00 0.03 0.03 53 1010.1
20260509200536 88 290 1.7 7.8 0.00 0.03 0.03 53 1010.2
20260509200049 88 134 3.5 8.7 0.00 0.03 0.03 54 1010.2
20260509195540 88 88 4.3 8.7 0.00 0.03 0.03 55 1010.2
20260509195038 88 136 3.5 10.4 0.00 0.03 0.03 54 1010.2
20260509194545 88 72 5.2 10.4 0.00 0.03 0.03 55 1010.2
20260509194037 88 42 0.9 7.8 0.00 0.03 0.03 56 1010.3
20260509193537 88 117 1.7 11.3 0.00 0.03 0.03 55 1010.4
20260509193050 88 44 5.2 11.3 0.00 0.03 0.03 54 1010.6
20260509192537 87 59 5.2 12.2 0.00 0.03 0.03 54 1010.7
20260509192042 87 82 3.5 12.2 0.00 0.03 0.03 57 1010.6
20260509191546 87 17 3.5 12.2 0.00 0.03 0.03 56 1010.7
20260509191036 87 34 5.2 9.6 0.00 0.03 0.03 56 1010.7
20260509190536 87 84 2.6 9.6 0.00 0.03 0.03 61 1011.0
20260509190054 86 81 4.3 9.6 0.00 0.03 0.03 57 1011.1
20260509185537 86 82 2.6 7.0 0.00 0.03 0.03 61 1011.2
20260509185036 86 70 1.7 8.7 0.00 0.03 0.03 61 1011.2
20260509184618 86 67 2.6 8.7 0.00 0.03 0.03 64 1011.4
20260509184038 86 80 3.5 8.7 0.00 0.03 0.03 61 1011.5
20260509183537 86 87 2.6 7.8 0.00 0.03 0.03 62 1011.4
20260509183053 86 76 1.7 5.2 0.00 0.03 0.03 63 1011.6
20260509182536 86 102 1.7 7.0 0.00 0.03 0.03 66 1011.8
20260509182036 86 30 1.7 7.8 0.00 0.03 0.03 63 1011.7
20260509181549 85 31 2.6 7.8 0.00 0.03 0.03 66 1011.7
20260509181035 85 61 3.5 7.8 0.00 0.03 0.03 66 1011.7
20260509180538 85 148 1.7 5.2 0.00 0.03 0.03 68 1011.9
20260509180044 85 127 2.6 5.2 0.00 0.03 0.03 67 1011.9
20260509175541 85 0 0.0 3.5 0.00 0.03 0.03 66 1011.9
20260509175036 85 0 1.7 4.3 0.00 0.03 0.03 68 1012.0
20260509174547 84 0 0.9 4.3 0.00 0.03 0.03 69 1011.9
20260509174035 84 67 1.7 7.0 0.00 0.03 0.03 69 1011.9
20260509173536 83 0 0.0 9.6 0.00 0.03 0.03 70 1012.1
20260509173047 83 122 2.6 9.6 0.00 0.03 0.03 70 1012.2
20260509172536 83 57 3.5 7.8 0.00 0.03 0.03 70 1012.2
20260509172038 83 39 2.6 6.1 0.00 0.03 0.03 71 1012.1
20260509171548 83 38 0.9 7.8 0.00 0.03 0.03 73 1012.2
20260509171037 82 67 1.7 8.7 0.00 0.03 0.03 72 1012.3
20260509170535 82 54 2.6 8.7 0.00 0.03 0.03 74 1012.3
20260509170048 82 330 0.9 7.8 0.00 0.03 0.03 74 1012.3
20260509165536 81 38 2.6 8.7 0.00 0.03 0.03 75 1012.3
20260509165035 81 57 3.5 8.7 0.00 0.03 0.03 77 1012.3
20260509164544 81 36 3.5 7.0 0.00 0.03 0.03 75 1012.3
20260509164040 81 54 3.5 7.0 0.00 0.03 0.03 75 1012.3
20260509163537 80 338 1.7 9.6 0.00 0.03 0.03 78 1012.3
20260509163058 79 61 0.9 9.6 0.00 0.03 0.03 78 1012.2
20260509162540 79 61 1.7 7.8 0.00 0.03 0.03 78 1012.3
20260509162040 79 62 3.5 7.0 0.00 0.03 0.03 77 1012.3
20260509161548 79 50 2.6 7.8 0.00 0.03 0.03 77 1012.2
20260509161035 79 40 0.9 7.8 0.00 0.03 0.03 81 1012.2
20260509160535 79 22 1.7 7.8 0.00 0.03 0.03 81 1012.3
20260509160050 78 0 1.7 6.1 0.00 0.03 0.03 80 1012.2
20260509155538 78 349 0.0 4.3 0.00 0.03 0.03 84 1012.3
20260509155035 77 328 0.9 4.3 0.00 0.03 0.03 84 1012.3
20260509154549 76 0 0.9 4.3 0.00 0.03 0.03 87 1012.4
20260509154036 75 0 0.0 5.2 0.00 0.03 0.03 90 1012.6
20260509153535 74 32 0.0 7.8 0.00 0.03 0.03 90 1012.7
20260509153045 73 0 0.9 7.8 0.00 0.03 0.03 89 1012.6
20260509152535 73 348 1.7 7.8 0.00 0.03 0.03 91 1012.7
20260509152035 73 306 0.9 6.1 0.00 0.03 0.03 91 1012.7
20260509151547 73 318 0.9 4.3 0.00 0.03 0.03 91 1012.4
20260509151038 73 329 0.0 3.5 0.00 0.03 0.03 92 1012.5
20260509150535 72 295 0.0 3.5 0.00 0.03 0.03 92 1012.5
20260509150045 72 0 0.9 4.3 0.00 0.03 0.03 92 1012.5
20260509145535 72 344 0.9 5.2 0.00 0.03 0.03 92 1012.2
20260509145034 72 330 1.7 5.2 0.00 0.03 0.03 92 1011.9
20260509144550 72 0 0.0 3.5 0.00 0.03 0.03 93 1011.8
20260509144039 72 0 0.0 7.0 0.00 0.03 0.03 93 1012.0
20260509143535 72 0 1.7 7.0 0.00 0.03 0.03 93 1011.9
20260509143055 72 0 0.9 3.5 0.00 0.03 0.03 93 1011.5
20260509142535 71 332 0.9 7.8 0.00 0.03 0.03 93 1011.8
20260509142036 71 0 0.9 7.8 0.00 0.03 0.03 93 1011.7
20260509141559 72 246 1.7 5.2 0.00 0.03 0.03 93 1011.4
20260509141038 72 319 0.0 4.3 0.00 0.03 0.03 93 1011.6
20260509140535 72 327 1.7 4.3 0.00 0.03 0.03 93 1011.5
20260509140057 71 0 0.9 4.3 0.00 0.03 0.03 93 1011.3
20260509135534 71 326 0.0 1.7 0.00 0.03 0.03 93 1011.3
20260509135036 71 0 0.0 2.6 0.00 0.03 0.03 93 1011.6
20260509134544 71 0 0.0 2.6 0.00 0.03 0.03 93 1011.7
20260509134034 71 187 0.9 2.6 0.00 0.03 0.03 93 1012.0
20260509133534 70 0 0.0 1.7 0.00 0.03 0.03 93 1012.1
20260509133045 70 0 0.0 4.3 0.00 0.03 0.03 93 1012.1
20260509132535 70 124 0.9 4.3 0.00 0.03 0.03 93 1012.1
20260509132034 70 174 0.9 5.2 0.00 0.03 0.03 93 1012.1
20260509131544 70 171 0.0 5.2 0.00 0.03 0.03 93 1011.9
20260509131034 71 171 0.9 4.3 0.00 0.03 0.03 93 1012.0
20260509130541 70 144 0.0 4.3 0.00 0.03 0.03 93 1011.9
20260509130054 70 0 1.7 5.2 0.00 0.03 0.03 93 1011.8
20260509125534 70 0 1.7 5.2 0.00 0.03 0.03 93 1011.7
20260509125034 70 167 1.7 4.3 0.00 0.03 0.03 93 1011.7
20260509124541 70 152 0.0 1.7 0.00 0.03 0.03 93 1011.6
20260509124036 70 0 0.0 3.5 0.00 0.03 0.03 93 1011.4
20260509123535 70 0 0.0 3.5 0.00 0.03 0.03 93 1011.5
20260509123054 70 224 0.9 2.6 0.00 0.03 0.03 93 1011.5
20260509122535 70 0 0.0 2.6 0.00 0.03 0.03 93 1011.6
20260509122036 70 167 0.0 0.9 0.00 0.03 0.03 93 1011.6
20260509121547 70 0 0.0 0.9 0.00 0.03 0.03 93 1011.7
20260509121037 70 0 0.0 1.7 0.00 0.03 0.03 93 1011.6
20260509120537 70 0 0.0 1.7 0.00 0.03 0.03 93 1011.6
20260509120041 70 0 0.0 2.6 0.00 0.03 0.03 92 1011.7
20260509115536 70 0 0.0 2.6 0.00 0.03 0.03 92 1011.7
20260509115037 70 114 1.7 3.5 0.00 0.03 0.03 92 1011.8
20260509114553 70 158 0.0 3.5 0.00 0.03 0.03 92 1012.0
20260509114037 70 178 0.9 4.3 0.00 0.03 0.03 92 1012.3
20260509113537 70 195 0.9 4.3 0.01 0.03 0.03 92 1012.2
20260509113106 70 205 0.9 3.5 0.01 0.03 0.03 92 1012.3
20260509112536 70 210 0.9 3.5 0.01 0.03 0.03 92 1012.4
20260509112037 70 232 0.0 3.5 0.01 0.03 0.03 92 1012.4
20260509111551 70 187 0.9 4.3 0.01 0.03 0.03 92 1012.5
20260509111034 70 220 1.7 4.3 0.01 0.03 0.03 92 1012.5
20260509110534 70 0 0.0 4.3 0.01 0.03 0.03 92 1012.4
20260509110046 70 204 0.0 5.2 0.01 0.03 0.03 92 1012.4
20260509105538 70 0 1.7 6.1 0.01 0.03 0.03 92 1012.4
20260509105038 70 0 0.9 7.0 0.01 0.03 0.03 92 1012.5
20260509104544 70 171 2.6 7.0 0.01 0.03 0.03 92 1012.7
20260509104037 70 174 1.7 4.3 0.01 0.03 0.03 92 1012.6
20260509103537 70 172 1.7 4.3 0.00 0.02 0.02 92 1012.4
20260509103056 70 209 0.0 2.6 0.00 0.02 0.02 92 1012.4
20260509102537 70 0 0.9 2.6 0.00 0.02 0.02 92 1012.2
20260509102037 70 203 0.0 1.7 0.00 0.02 0.02 92 1012.0
20260509101546 70 171 0.0 1.7 0.00 0.02 0.02 92 1011.7
20260509101036 70 0 0.0 1.7 0.01 0.02 0.02 92 1011.5
20260509100536 70 0 0.0 0.9 0.01 0.02 0.02 92 1011.5
20260509100105 70 0 0.0 0.9 0.01 0.02 0.02 92 1011.4
20260509095534 70 0 0.0 0.9 0.02 0.02 0.02 92 1011.5
20260509095110 70 0 0.0 0.9 0.02 0.02 0.02 92 1011.4
20260509094552 70 0 0.0 0.0 0.02 0.02 0.02 92 1011.2
20260509094034 70 0 0.0 0.0 0.02 0.02 0.02 92 1011.2
20260509093537 70 0 0.0 0.0 0.02 0.02 0.02 92 1011.1
20260509093046 70 0 0.0 0.0 0.02 0.02 0.02 92 1011.2
20260509092539 70 0 0.0 0.0 0.02 0.02 0.02 92 1011.1
20260509092037 70 0 0.0 2.6 0.02 0.02 0.02 92 1011.1
20260509091551 70 0 0.0 2.6 0.02 0.02 0.02 91 1011.1
20260509091038 70 163 0.0 3.5 0.01 0.01 0.01 92 1011.0
20260509090537 70 130 0.9 3.5 0.01 0.01 0.01 92 1011.1
20260509090041 70 0 0.0 1.7 0.01 0.01 0.01 92 1011.1
20260509085537 71 0 0.0 1.7 0.00 0.00 0.00 92 1011.1
20260509085039 70 0 0.0 2.6 0.00 0.00 0.00 91 1011.2
20260509084548 71 0 0.0 2.6 0.00 0.00 0.00 91 1011.2
20260509084038 71 0 0.0 2.6 0.00 0.00 0.00 91 1011.1
20260509083535 71 0 0.9 2.6 0.00 0.00 0.00 91 1011.2
20260509083048 71 203 0.0 0.9 0.00 0.00 0.00 91 1011.3
20260509082534 71 0 0.0 0.9 0.00 0.00 0.00 91 1011.4
20260509082037 71 0 0.0 0.9 0.00 0.00 0.00 91 1011.4
20260509081557 71 0 0.0 0.9 0.00 0.00 0.00 91 1011.4
20260509081036 71 0 0.0 0.9 0.00 0.00 0.00 91 1011.3
20260509080534 71 0 0.0 1.7 0.00 0.00 0.00 91 1011.3
20260509080058 71 176 0.0 1.7 0.00 0.00 0.00 91 1011.4
20260509075540 71 0 0.0 0.0 0.00 0.00 0.00 91 1011.4
20260509075037 71 0 0.0 0.0 0.00 0.00 0.00 91 1011.2
20260509074551 71 0 0.0 0.0 0.00 0.00 0.00 91 1011.2
20260509074037 71 0 0.0 1.7 0.00 0.00 0.00 91 1011.1
20260509073535 71 0 0.0 1.7 0.00 0.00 0.00 91 1011.3
20260509073048 71 0 0.0 2.6 0.00 0.00 0.00 91 1011.1
20260509072535 71 265 0.0 2.6 0.00 0.00 0.00 90 1011.1
20260509072034 71 288 0.0 2.6 0.00 0.00 0.00 91 1010.9
20260509071548 71 306 0.9 3.5 0.00 0.00 0.00 91 1010.9
20260509071037 71 0 0.0 3.5 0.00 0.00 0.00 91 1011.1
20260509070541 71 0 0.0 2.6 0.00 0.00 0.00 91 1011.2
20260509070047 71 328 0.0 2.6 0.00 0.00 0.00 90 1011.2
20260509065535 71 329 0.0 5.2 0.00 0.00 0.00 90 1011.3
20260509065037 71 0 0.0 5.2 0.00 0.00 0.00 90 1011.4
20260509064544 71 0 0.9 5.2 0.00 0.00 0.00 90 1011.4
20260509064035 71 0 0.0 4.3 0.00 0.00 0.00 90 1011.2
20260509063537 71 0 0.0 3.5 0.00 0.00 0.00 90 1011.3
20260509063045 71 325 0.9 3.5 0.00 0.00 0.00 90 1011.2
20260509062537 71 325 0.0 3.5 0.00 0.00 0.00 90 1010.7
20260509062038 71 304 0.0 5.2 0.00 0.00 0.00 90 1010.9
20260509061556 71 321 0.9 5.2 0.00 0.00 0.00 90 1010.7
20260509061038 71 321 1.7 5.2 0.00 0.00 0.00 90 1010.9
20260509060537 71 0 0.9 4.3 0.00 0.00 0.00 90 1011.1
20260509060048 71 0 1.7 4.3 0.00 0.00 0.00 90 1011.0
20260509055540 71 0 0.9 5.2 0.00 0.00 0.00 90 1010.8
20260509055035 71 0 0.9 5.2 0.00 0.00 0.00 90 1011.0
20260509054556 70 321 0.9 5.2 0.00 0.00 0.00 90 1011.2
20260509054036 70 311 0.0 5.2 0.00 0.00 0.00 90 1011.2
20260509053535 70 317 0.9 5.2 0.00 0.00 0.00 90 1011.2
20260509053059 70 301 0.9 3.5 0.00 0.00 0.00 90 1011.2
20260509052537 70 309 0.0 8.7 0.00 0.00 0.00 90 1011.2
20260509052037 70 55 0.9 8.7 0.00 0.00 0.00 90 1011.1
20260509051549 70 352 0.9 4.3 0.00 0.00 0.00 90 1011.0
20260509051034 70 0 0.0 3.5 0.00 0.00 0.00 90 1011.0
20260509050537 70 0 0.9 6.1 0.00 0.00 0.00 90 1011.1
20260509050049 69 0 0.9 7.0 0.00 0.00 0.00 90 1010.8
20260509045537 69 321 1.7 7.0 0.00 0.00 0.00 90 1010.7
20260509045037 69 0 1.7 4.3 0.00 0.00 0.00 90 1010.7
20260509044555 69 307 0.9 4.3 0.00 0.00 0.00 89 1010.6
20260509044036 69 315 0.0 3.5 0.00 0.00 0.00 89 1010.4
20260509043536 70 304 0.0 3.5 0.00 0.00 0.00 88 1010.4
20260509043046 70 308 0.9 3.5 0.00 0.00 0.00 88 1010.4
20260509042537 70 300 0.0 3.5 0.00 0.00 0.00 88 1010.6
20260509042039 70 305 0.0 3.5 0.00 0.00 0.00 88 1010.6
20260509041546 70 0 0.0 3.5 0.00 0.00 0.00 88 1010.7
20260509041037 70 317 0.9 3.5 0.00 0.00 0.00 88 1010.7
20260509040536 71 314 0.9 2.6 0.00 0.00 0.00 88 1010.9
20260509040049 71 304 0.9 2.6 0.00 0.00 0.00 88 1011.0
20260509035537 71 0 0.0 0.0 0.00 0.00 0.00 88 1011.1
20260509035035 71 0 0.0 0.0 0.00 0.00 0.00 88 1011.2
20260509034550 71 0 0.0 0.0 0.00 0.00 0.00 88 1011.2
20260509034034 70 0 0.0 0.0 0.00 0.00 0.00 88 1011.2
20260509033538 70 0 0.0 0.0 0.00 0.00 0.00 88 1011.1
20260509033044 70 0 0.0 0.9 0.00 0.00 0.00 88 1011.1
20260509032537 70 0 0.0 0.9 0.00 0.00 0.00 88 1011.1
20260509032036 70 0 0.0 0.9 0.00 0.00 0.00 87 1011.0
20260509031552 70 0 0.0 1.7 0.00 0.00 0.00 87 1010.9
20260509031037 70 0 0.0 1.7 0.00 0.00 0.00 87 1010.8
20260509030537 71 0 0.0 0.9 0.00 0.00 0.00 87 1010.8
20260509030049 71 0 0.0 0.9 0.00 0.00 0.00 87 1010.8
20260509025536 71 0 0.0 1.7 0.00 0.00 0.00 87 1010.7
20260509025034 71 0 0.0 2.6 0.00 0.00 0.00 87 1010.7
20260509024545 71 0 0.0 2.6 0.00 0.00 0.00 87 1010.6
20260509024035 71 317 0.9 2.6 0.00 0.00 0.00 87 1010.6
20260509023534 71 306 0.9 2.6 0.00 0.00 0.00 87 1010.6
20260509023045 71 307 0.0 2.6 0.00 0.00 0.00 86 1010.6